Simultaneous Nadir Overpasses (SNOs) Predictions

Prediction of SNOs between GOES-17 and METOP-A Satellite Orbit:

Table of predicted SNOs for the next 14.0 days since TLE Epoch: 10/10/2020
Index Date Time (GOES-17) GOES-17 Lat,Lon METOP-A Lat,Lon Distance(km) Time Diff (sec)
1 10/11/2020 17:45:40 -0.04,-137.19 0.35,-139.00 206.22 80
2 10/12/2020 17:27:41 -0.04,-137.18 -0.74,-134.02 360.11 80
3 10/14/2020 05:44:01 0.04,-137.16 -0.31,-138.65 170.23 80
4 10/15/2020 05:26:01 0.04,-137.15 0.79,-133.67 395.81 80
5 10/16/2020 17:42:14 -0.04,-137.14 0.24,-138.27 129.05 80
6 10/17/2020 17:24:14 -0.04,-137.13 -0.85,-133.29 436.62 80
7 10/19/2020 05:40:36 0.04,-137.09 -0.13,-137.93 94.93 80
8 10/20/2020 05:22:36 0.03,-137.07 0.96,-132.95 470.25 80
9 10/21/2020 17:38:48 -0.03,-137.05 0.06,-137.55 55.98 80
